Lapse_Rate
7.0 6.5 6.5 6.5 6.5 6.5 6.5 6.5 6.5 6.5 6.5 6.5 6.5 6.5 6.5 6.7 6.7 6.9 7.0 7.1 6.9 5.6 6.7 6.3 6.4 5.9 5.1 4.6 4.6 4.4 4.5 6.1 7.6 7.4 7.1 7.7 7.8 7.6 7.1 6.8 6.4 6.4 6.1 5.5
6.5 6.5 6.5 6.5 6.5 6.5 6.5 6.5 6.5 6.5 6.5 6.5 6.5 6.5 6.5 6.6 6.8 7.1 7.0 6.2 6.5 6.5 7.6 6.5 5.9 4.8 5.3 5.6 5.0 4.6 4.1 4.5 6.9 7.7 7.5 7.9 7.8 7.3 7.4 6.2 6.0 5.8 5.9 5.6
6.5 6.5 6.7 6.5 6.5 6.5 6.5 6.5 6.5 6.5 6.5 6.5 6.5 6.5 6.5 6.5 7.0 7.4 7.0 6.8 6.5 6.4 6.4 6.0 5.5 5.2 5.1 4.9 4.8 4.5 4.2 3.8 5.2 6.1 6.5 6.4 6.5 5.8 6.1 6.1 6.1 5.4 5.5 5.3
6.5 6.7 6.5 6.5 6.5 6.5 6.5 6.5 6.5 6.5 6.5 6.5 6.5 6.5 6.5 6.5 6.5 6.6 7.0 6.2 5.5 6.3 6.4 6.8 6.0 5.9 5.9 5.4 4.6 4.1 2.8 3.1 4.3 5.4 6.5 6.6 7.1 6.8 6.6 6.7 6.4 6.1 5.6 5.6
6.5 6.5 6.5 6.5 6.5 6.5 6.5 6.5 6.5 6.5 6.5 6.5 6.5 6.5 6.5 6.5 6.5 6.5 6.8 7.3 7.3 6.3 6.2 6.3 6.1 6.3 6.6 6.6 5.5 4.6 4.5 3.2 2.5 3.1 6.3 6.8 7.5 7.8 7.7 6.8 6.5 6.5 6.0 5.4
6.5 7.1 6.6 6.5 6.5 6.5 6.5 6.5 6.5 6.5 6.5 6.5 6.5 6.5 6.5 6.5 6.5 6.5 6.9 7.4 7.7 7.7 7.1 5.9 5.9 6.6 6.4 6.3 5.7 5.8 5.3 4.1 3.0 2.6 3.8 6.0 6.7 7.1 6.9 6.8 6.7 6.7 6.2 5.6
6.5 6.5 6.6 6.8 6.5 6.5 6.5 6.5 6.5 6.5 6.5 6.5 6.5 6.5 6.5 6.5 6.5 6.7 6.8 7.4 7.8 8.0 8.0 7.8 6.7 6.1 5.6 5.3 5.5 5.1 6.1 5.2 3.8 3.2 2.9 3.2 6.0 6.8 6.7 7.0 7.1 7.2 6.6 5.8
6.5 6.5 6.5 6.5 6.5 6.5 6.5 6.5 6.5 6.5 6.5 6.5 6.5 6.5 6.5 6.5 7.2 7.4 7.6 7.8 7.9 8.0 8.2 8.3 8.3 7.5 6.3 5.7 4.9 4.8 5.1 5.6 5.6 5.0 4.1 3.4 3.4 5.7 6.5 6.4 6.7 6.6 6.8 7.0
6.5 6.5 6.5 6.5 6.6 6.5 6.5 6.5 6.5 6.5 6.5 6.5 6.5 6.5 6.5 6.5 6.6 7.1 7.4 7.6 7.7 8.0 8.2 8.3 8.5 8.5 7.5 6.2 5.4 5.0 5.0 4.5 5.4 4.8 4.6 4.4 4.0 4.1 4.6 4.8 5.6 5.9 6.5 5.6
6.5 6.5 6.5 6.5 6.7 6.6 6.5 6.5 6.5 6.5 6.5 6.5 6.5 6.5 6.5 6.5 6.5 6.5 6.9 7.4 7.8 8.1 8.2 8.4 8.4 8.0 6.2 5.6 5.7 5.3 5.8 5.4 5.7 6.0 5.9 4.8 4.5 4.5 3.8 3.7 3.9 3.5 4.4 4.6
6.5 6.5 6.5 6.5 6.5 6.5 6.5 6.5 6.5 6.5 6.5 6.5 6.5 6.5 6.5 6.5 6.5 6.5 7.0 7.5 7.8 8.1 8.2 8.4 8.5 7.7 5.9 5.2 4.9 4.8 5.0 5.1 4.7 4.9 5.6 6.0 6.0 6.0 5.2 4.2 4.1 3.8 3.5 3.3
6.5 6.5 6.5 6.5 6.5 6.5 6.5 6.5 6.5 6.5 6.5 6.5 6.5 6.5 6.5 6.5 6.9 7.2 7.3 7.7 8.1 8.2 8.4 8.5 8.3 6.9 4.7 3.5 3.0 2.8 3.2 3.7 4.1 4.4 4.9 5.4 6.0 5.8 6.1 5.9 5.8 5.7 5.4 4.4
6.5 6.5 6.5 6.5 6.5 6.5 6.5 6.5 6.5 6.5 6.5 6.5 6.5 6.5 6.7 6.9 6.9 7.4 7.4 7.8 8.0 8.1 8.2 8.4 8.4 7.1 4.5 3.1 2.7 2.4 2.1 2.4 2.2 2.5 3.1 3.8 4.3 4.7 4.8 5.1 5.5 6.3 6.0 5.8
6.7 6.5 6.5 6.5 6.5 6.5 6.5 6.5 6.5 6.5 6.5 6.5 6.5 6.5 6.5 6.5 6.5 7.1 7.5 7.8 8.0 8.1 8.1 8.2 8.0 8.1 7.9 5.8 3.0 2.0 2.0 1.9 1.5 1.6 1.8 2.2 2.5 3.1 3.8 4.5 5.2 5.6 5.7 5.5
6.5 6.5 6.5 6.5 6.5 6.5 6.5 6.5 6.5 6.5 6.5 6.5 6.5 6.5 6.5 6.5 6.6 7.2 7.7 7.8 7.9 7.9 8.1 8.2 7.8 7.3 6.6 5.6 5.5 5.5 4.1 2.4 1.8 1.4 1.6 1.6 2.0 2.5 2.8 3.2 3.7 4.3 4.6 5.2
6.5 6.5 6.5 6.5 6.5 6.5 6.5 6.5 6.5 6.5 6.5 6.5 6.5 6.5 6.7 7.2 7.4 7.3 7.5 7.7 7.7 7.9 8.1 8.2 8.3 8.2 7.3 5.9 5.0 3.9 3.3 3.8 4.5 4.3 4.1 3.8 3.0 2.3 2.6 2.8 2.9 3.1 3.6 4.8
6.5 6.5 6.5 6.5 6.5 6.5 6.5 6.5 6.5 6.5 6.5 6.5 6.5 6.5 6.8 6.6 6.9 7.3 7.5 7.8 7.8 8.0 8.1 8.2 8.4 8.6 8.8 8.2 6.7 4.8 4.5 4.4 4.4 4.5 4.6 5.1 5.3 5.2 4.9 4.4 3.4 3.0 3.4 3.8
6.5 6.5 6.5 6.5 6.5 6.5 6.5 6.5 6.5 6.5 6.5 6.5 6.5 6.5 6.9 7.1 7.6 7.8 8.1 7.9 7.9 8.1 8.2 8.4 8.5 7.8 7.5 7.9 7.0 5.9 5.6 5.2 5.4 5.6 5.9 6.0 6.2 6.0 5.7 5.4 5.5 5.4 5.4 5.1
6.7 6.5 6.5 6.5 6.5 6.5 6.5 6.5 6.5 6.5 6.5 6.5 6.5 6.7 7.1 7.5 7.6 7.6 8.3 8.4 8.3 8.5 8.6 8.8 9.0 8.7 8.7 8.9 7.9 7.8 7.9 7.8 6.8 6.7 5.8 6.2 6.5 7.0 7.3 7.0 6.9 6.5 6.4 7.1
6.5 6.5 6.5 6.5 6.5 6.5 6.5 6.5 7.2 6.9 6.5 6.9 7.0 6.8 7.0 7.3 6.5 6.7 8.1 8.5 8.6 8.8 8.9 8.3 8.7 8.9 8.4 7.3 7.1 6.7 6.7 6.9 8.2 7.5 7.8 8.4 7.2 7.1 7.8 7.8 7.6 7.9 7.7 8.0
6.5 6.5 6.5 6.5 6.5 6.5 6.5 6.9 7.3 6.5 6.5 7.2 7.3 7.3 7.3 6.7 7.4 8.1 8.5 8.5 8.8 8.8 8.8 9.1 9.0 8.9 8.5 8.3 7.8 7.1 7.3 8.2 6.9 6.2 5.9 6.0 6.3 7.3 8.0 8.2 8.8 8.3 7.5 6.7
6.5 6.5 6.5 6.5 6.5 6.5 7.2 6.8 6.5 6.8 7.5 7.5 7.6 7.6 7.6 7.8 8.0 8.2 8.3 7.9 7.1 7.5 7.7 8.1 8.5 8.1 8.1 8.1 7.6 7.4 7.8 7.4 6.8 6.5 5.6 6.1 6.5 7.9 7.2 7.4 8.1 8.0 8.0 7.7
6.5 6.5 6.5 6.5 6.5 7.0 7.6 7.3 7.8 7.8 7.5 7.6 7.7 7.9 7.9 7.8 8.0 8.1 8.2 8.2 8.1 7.7 7.0 7.2 7.8 7.2 7.6 8.1 7.9 7.7 7.8 7.5 7.1 6.7 6.3 6.3 6.0 6.2 7.2 8.4 8.3 8.2 7.9 7.0
6.5 7.0 6.5 6.5 6.6 6.9 7.4 7.8 7.6 7.7 7.8 7.6 7.6 7.8 8.0 7.9 8.2 8.2 8.4 8.4 8.4 8.4 8.0 8.8 7.7 8.2 7.7 7.6 6.7 7.1 7.6 7.7 7.4 5.9 6.3 6.8 7.8 7.4 7.2 7.9 8.4 8.5 7.5 6.9
6.7 6.8 6.5 6.5 6.8 7.2 7.5 7.6 7.1 7.2 7.0 7.2 7.1 7.2 7.5 7.9 8.1 8.3 8.2 8.3 8.5 8.3 8.9 8.5 7.9 7.8 7.1 6.6 6.4 7.0 7.5 7.5 6.7 6.0 6.3 6.3 8.2 8.4 8.1 8.6 8.8 8.5 7.7 7.2
7.0 6.5 6.5 6.5 7.1 7.0 7.2 7.2 6.9 7.5 7.0 7.0 7.0 7.3 7.6 7.2 7.0 7.2 7.4 7.8 7.9 8.4 8.8 8.2 7.8 7.0 6.6 6.1 5.8 6.8 8.0 8.1 6.4 5.8 6.3 6.4 8.2 8.5 8.3 8.5 8.3 7.3 8.5 8.7
Wind_Speed
2 3 7 11 7 8 7 8 10 6 7 7 15 16 15 6 11 15 13 11 1 9 6 8 8 10 8 8 7 9 9 8 8 7 6 6 7 6 6 9 10 9 10 11
2 5 6 9 4 9 2 10 9 2 6 6 19 21 19 19 18 13 12 13 6 6 6 6 6 9 6 2 7 9 9 7 8 6 6 5 6 6 7 11 11 10 10 10
3 3 8 4 5 13 1 9 8 4 7 1 1 19 19 16 23 24 24 18 14 6 8 10 8 4 6 4 5 5 8 9 8 8 5 4 4 3 5 6 6 9 13 15
1 3 5 7 7 8 7 9 6 6 2 5 10 5 18 18 19 22 18 21 21 11 10 9 7 4 5 4 0 4 4 3 5 10 9 10 7 7 7 7 7 7 13 13
4 5 6 11 8 5 6 6 4 4 5 2 14 4 14 18 19 20 19 16 18 19 15 10 7 7 6 3 3 4 6 4 2 1 6 8 9 6 3 5 7 9 9 13
2 1 2 6 8 2 8 2 2 1 2 5 8 2 10 11 16 19 19 19 19 20 18 16 13 7 3 1 3 2 3 4 5 4 3 7 9 7 5 5 5 6 7 6
4 1 2 2 6 1 13 2 2 2 2 3 4 4 5 12 15 14 16 18 20 20 21 20 19 16 15 12 1 3 5 5 6 7 7 5 9 9 9 8 7 7 6 6
4 2 6 7 3 4 5 5 3 1 1 2 3 3 4 9 14 13 15 17 19 21 19 21 21 19 19 20 16 15 7 5 5 6 7 7 8 6 7 8 8 7 7 8
4 3 1 2 2 3 4 4 3 2 1 2 2 3 6 8 14 16 18 19 20 20 20 21 21 20 20 20 19 18 16 15 11 4 3 4 4 7 6 8 7 7 9 7
2 4 1 3 2 2 4 2 2 1 2 2 4 4 3 9 12 14 17 17 18 19 20 19 19 20 19 19 18 20 19 17 16 14 10 3 4 5 6 7 7 7 8 7
2 2 1 2 3 3 1 3 3 1 3 2 2 3 4 5 6 8 11 14 16 17 18 17 17 17 17 17 19 19 19 19 18 17 16 14 11 7 4 6 6 9 9 8
0 1 3 3 2 3 1 1 1 3 2 2 4 2 4 5 5 8 9 12 13 15 15 16 16 17 17 18 18 17 17 17 17 16 16 15 14 13 11 9 8 8 10 11
3 2 4 3 3 4 4 2 1 2 0 6 4 3 4 3 4 8 8 10 12 14 15 14 14 15 16 17 17 17 16 17 16 16 15 14 14 14 14 13 12 10 9 9
3 3 7 7 9 2 8 5 5 6 4 3 9 4 9 1 4 8 8 10 12 14 16 16 16 15 15 15 16 17 17 18 17 17 16 15 16 14 14 13 13 11 11 11
2 5 5 11 13 12 12 14 11 12 14 8 1 5 6 2 7 8 8 10 12 14 16 17 18 18 19 18 17 15 15 16 17 17 17 17 17 16 16 15 14 13 12 11
1 3 2 7 10 6 9 10 9 10 11 14 11 3 3 2 4 6 7 10 12 14 15 15 15 17 17 19 19 19 19 18 17 15 16 16 17 18 18 17 16 16 15 14
3 3 2 5 1 10 11 2 3 4 2 2 7 2 2 0 6 6 5 9 11 12 14 15 15 15 15 16 17 19 19 18 18 18 18 17 17 17 17 17 18 18 17 16
5 5 3 5 6 5 3 4 3 5 5 5 5 3 4 6 8 1 6 10 12 13 14 14 14 15 16 16 16 17 18 18 18 18 18 19 19 19 19 18 18 17 16 17
10 7 4 3 3 2 4 3 3 3 4 2 3 1 4 7 5 8 8 9 8 10 10 10 11 13 14 14 15 15 15 15 16 18 20 20 20 20 20 20 19 17 16 15
6 6 4 2 4 5 4 5 2 2 5 5 1 1 5 8 4 4 12 11 10 10 10 12 13 13 13 14 15 16 16 16 17 18 18 19 20 21 21 21 20 17 17 17
4 3 10 8 5 2 3 2 1 4 3 4 0 2 3 3 4 10 10 9 9 10 11 11 11 11 12 13 14 15 15 16 18 19 20 20 20 19 20 19 17 18 18 18
5 5 4 3 5 7 4 2 4 4 5 3 1 0 3 5 6 8 10 12 13 13 13 12 12 12 12 13 13 15 15 17 18 19 20 19 20 16 16 19 16 16 15 18
3 2 0 2 2 5 7 8 5 3 2 2 1 2 4 6 7 8 9 10 11 13 13 12 13 14 13 12 13 15 16 17 18 19 20 19 20 19 17 18 18 15 14 12
2 4 1 2 4 4 5 5 4 3 2 1 1 3 4 7 8 9 9 10 10 11 11 11 14 14 14 13 15 14 16 17 17 19 19 17 15 19 19 14 14 13 13 12
2 4 1 2 5 5 3 3 2 1 1 2 3 4 6 7 9 9 10 11 10 11 11 12 13 13 15 15 15 15 16 16 17 16 16 15 13 15 16 15 13 13 14 15
3 2 1 1 3 1 1 3 1 1 3 4 6 7 7 7 10 11 11 11 11 12 13 12 13 14 15 16 16 15 15 16 17 17 14 13 12 13 13 14 14 24 25 26
Wind_Direction
36 47 8 339 334 307 306 307 318 2 6 7 54 47 35 10 357 16 13 351 37 294 157 121 114 121 91 75 117 107 107 136 156 160 162 182 188 183 189 197 200 200 199 196
162 34 341 316 293 331 312 337 14 94 5 62 68 56 39 36 22 23 359 352 335 239 109 117 84 67 67 136 98 145 139 150 170 174 180 186 190 206 202 197 203 207 204 196
50 14 320 335 346 352 74 5 334 307 319 199 28 51 27 25 35 30 13 354 341 127 96 84 80 133 153 148 214 124 154 167 165 159 161 145 158 163 200 209 204 202 197 199
18 352 347 343 13 343 345 349 301 302 274 55 346 76 22 8 29 36 23 358 356 26 67 65 93 80 58 10 115 103 83 179 160 170 186 197 206 206 208 208 210 203 205 208
9 347 358 357 350 336 326 335 326 334 67 106 21 56 10 11 9 9 14 18 9 20 27 33 53 69 73 45 78 131 143 133 183 283 204 203 221 223 215 211 213 209 202 208
352 337 318 326 310 258 322 222 240 243 322 49 7 0 35 22 354 352 6 24 22 24 27 28 17 360 40 96 102 153 145 169 159 164 254 228 239 235 226 223 229 219 213 208
334 26 337 346 326 344 6 40 203 171 53 52 356 36 31 0 13 6 6 21 32 33 33 29 29 25 22 11 305 205 209 168 177 189 191 221 258 249 239 238 236 237 223 217
355 334 5 348 29 315 359 2 6 103 144 62 356 116 54 26 25 31 33 36 37 35 33 35 32 30 28 28 23 18 340 275 223 210 223 210 224 246 247 246 245 240 242 241
343 317 300 318 345 332 6 26 332 83 90 237 101 117 195 40 36 30 32 30 30 28 29 29 29 30 26 27 26 23 23 23 13 320 291 259 234 243 257 252 247 254 251 248
120 290 83 320 271 81 39 75 314 357 211 176 162 207 197 12 17 22 26 25 22 21 20 21 21 20 20 17 18 24 24 24 18 11 7 345 282 254 249 254 244 243 256 254
172 228 197 248 23 340 94 49 55 306 303 286 230 153 45 63 32 33 30 27 24 19 14 14 13 15 14 13 14 13 13 11 12 3 5 3 356 341 251 234 255 260 255 239
163 282 280 304 350 255 282 350 26 320 341 305 311 111 90 79 43 15 19 15 15 16 15 10 9 8 9 8 8 8 4 5 4 359 356 356 357 353 349 339 318 292 274 255
180 214 296 173 181 166 224 188 103 107 252 248 281 112 134 95 48 25 10 8 8 7 7 8 10 9 6 3 1 0 358 357 355 351 351 351 350 346 343 334 325 306 289 277
203 230 243 265 301 323 266 213 223 245 246 244 238 171 186 127 11 10 12 5 3 4 1 358 1 2 2 1 358 355 353 351 349 346 346 344 342 338 334 328 324 314 307 292
229 255 223 260 274 269 265 267 253 227 232 237 81 242 143 35 1 360 358 1 2 2 1 360 356 353 353 353 353 353 351 348 344 341 341 340 335 333 330 330 326 321 312 293
198 269 263 271 261 260 265 260 247 240 245 250 251 194 139 148 347 5 7 359 359 358 357 355 354 353 351 350 347 345 345 345 342 340 336 335 333 331 329 327 325 320 314 306
247 246 236 268 240 303 270 223 167 131 136 266 221 85 46 142 0 8 10 3 356 354 352 350 350 349 349 346 344 342 340 339 341 339 338 336 332 326 323 318 315 312 310 307
224 202 226 277 296 237 77 34 219 130 109 114 108 87 15 338 324 291 25 2 357 352 346 343 344 342 343 341 342 337 337 337 337 336 335 333 330 324 320 315 310 305 301 295
221 207 238 255 247 334 200 172 182 217 148 118 158 19 335 326 307 177 19 5 345 338 331 330 331 332 330 335 337 333 330 334 332 333 331 328 324 320 318 313 309 305 297 290
164 230 238 195 242 268 79 130 45 207 221 161 144 318 333 331 272 91 352 344 339 339 337 331 331 328 330 334 333 331 332 332 333 330 322 320 318 315 314 311 307 301 296 291
140 178 225 234 259 267 70 353 155 218 76 138 72 358 333 327 314 314 323 330 333 329 329 328 323 326 329 328 330 327 327 329 329 324 320 318 314 310 307 306 304 301 297 294
192 184 204 206 233 256 13 151 238 66 83 97 94 342 296 310 316 320 322 326 327 327 329 329 322 324 325 329 327 323 321 326 324 323 319 316 315 311 310 306 299 291 284 286
222 315 339 304 24 79 42 78 77 55 109 104 272 319 318 307 308 312 314 315 318 320 320 320 323 319 321 322 325 318 319 323 322 322 319 318 315 315 309 305 306 300 291 277
120 15 290 193 117 115 100 85 79 70 77 29 308 297 296 297 308 308 310 312 312 316 315 320 318 316 317 324 322 316 320 321 323 318 313 312 311 314 314 309 302 300 301 283
14 334 25 102 123 132 124 80 58 91 48 335 321 310 308 308 312 314 312 311 313 315 313 319 315 316 317 321 319 318 321 322 323 315 312 312 310 310 311 303 305 303 297 292
12 47 249 53 90 347 93 146 81 2 347 337 325 324 323 317 314 316 311 312 315 311 320 315 316 315 318 319 317 319 322 324 323 319 316 311 313 314 308 309 310 305 301 302